Showing default

TELSTAR 11N, 34111

Orbit data source: Space-Track

TELSTAR 11N, 34111 is a payload satellite owned by Telesat/Skynet (CA) in GEO that was launched on Thu, 26 Feb 2009 UTC via a ZENIT-3SLB launch vehicle from the Tyuratam Missile And Space Complex (TTMTR). Payload-class satellites include a variety of spacecraft equipped with specific instruments for various scientific and technological missions. These include communications satellites like Starlink; space stations such as the ISS; scientific satellites like the Hubble; Earth observation satellites from companies like Planet Labs, Umbra, and HawkEye 360; GPS; miniature CubeSats for education and research; and military/defense satellites.

Not visible in the next 10 days
Identifier
34111, 2009-009A
Orbit
GEO
Country
Flag of CACA
Related business
Manufacturer
SS/Loral
Mission
Operational Commercial Communications
Bus & Motor
FS-1300, R-4D-11-164
Mass
4,010 kg wet, ~2,000 kg dry
Launch date (UTC)
2009-02-26 (17 years ago)
Launch vehicle
ZENIT-3SLB
Launch site
Tyuratam Missile And Space Complex (TTMTR)
Object type
Payload
Rocket body
Debris
Shape & HBR
Box + 2 Pan, 15.5 m
Radar Cross Section
40.765 m², Large (>1 m²)

Expand to show TLE details & history
Last TLE update: 1 day ago

TLE from 1 day ago
0 TELSTAR 11N
1 34111U 09009A   25293.33015031 -.00000248  00000-0  00000-0 0  9990
2 34111   0.0181 231.1761 0002245 318.5006 280.6895  1.00273698 43842
Epoch: 2025-10-20T07:55Z
TLE epoch observation values (Epoch: 2025-10-20T07:55:24.986Z)
Latitude
-0.039°
Longitude
-37.57418°
Altitude
35,783.824 km
Speed
3.075 km/s
True Right ascension
07h 21m 15s
True Declination
0° 02' 20"
Sunlit
Object was in daylight at epoch
Visualization orbit readout
Latitude
Unknown
Longitude
Unknown
Altitude
Unknown
Speed
Unknown
Apparent Right ascension
Unknown
Apparent Declination
Unknown
Sunlit
N/A
Visualization observer readout
Local Sidereal Time
05:06:25
Azimuth
Unknown
Elevation
Unknown
Doppler factor
Unknown
Orbital elements
Apogee altitude
35,796.595 km
Perigee altitude
35,777.663 km
Semi-major axis
42,165.266 km
Eccentricity
0.00022
Inclination
0.0181°
RAAN
231.1761°
Arg. of periapsis
318.5006°
True anomaly
280.66422°
Mean anomaly
280.6895°
Eccentric anomaly
280.67686°
Mean motion
0.25067 °/min
Orbital period
1,436.12 mins
BSTAR
0
Loading maneuver chart data...
Computing Atmospheric mass density...
Loading historical data...
Loading historical data...
Loading historical data...
Loading historical data...
Loading historical data...
Loading historical data...
Loading historical data...
Other satellites on launch #9 in the year 2009 (2009-02-26 UTC)

Documentation

Showing up to 5 results
|